Location: ??
(35.5052°N, 139.7262°E)
Time: 01:14:04
(UTC+00:00)

Terra - Pass Details

Date: 20 June 2021
Orbit: 701 x 703 km, 98.2° (Epoch: 26 July)

Event Time Altitude Azimuth Distance (km) Brightness Sun altitude
Exits shadow 12:26:36 54° 99° (E) 854 1.9 -22.8°
Maximum altitude 12:27:04 57° 74° (ENE) 830 2.0 -22.9°
Drops below altitude 10° 12:31:44 10° 357° (N) 2,176 5.2 -23.4°
Sets 12:34:01 0° 353° (N) 3,098 6.2 -23.6°
